Weather in Lipovka

Russia / Voronezh Oblast     50°51′45″N   40°01′30″E
temp.,
°C
wind,
m/s
gust,
m/s
humid.,
%
clouds,
%
prec.,
mm/h
press.,
hPa
HPBL,
m
7 march, sun
sun700:00−5nw58680 0.0 1019848
03:00−5w48710 0.0 1020654
06:00−6w48860 0.0 1019403
09:00−4wsw69780 0.0 1018791
12:00−1wsw7115897 0.0 10161220
15:000sw9144799 0.0 10121178
18:00−1sw81653100 0.0 10091215
21:00−1wsw91773100 0.0 10071227
8 march, mon
mon800:00−1wsw91690100 0.1 10061010
03:00−1wsw8149099 0.3 1007849
06:00−1wsw61297100 0.8 1006683
09:000wsw8138399 1.3 1006913
12:00+1wsw81187100 0.1 10061010
15:00+1w71075100 1.1 10061184
18:00−1wnw497493 0.2 1007599
21:00−3nw487858 0.2 1009701
9 march, tue
tue900:00−3wnw36790 0.0 1010507
03:00−4wnw368649 0.1 1011490
06:00−4wnw478793 0.1 1012635
09:00−5nnw458594 0.3 1014514
12:00−4nw5566100 0.2 10141029
15:00−4nw5664100 0.3 10161117
18:00−5nw5771100 0.1 1016993
21:00−6nw6771100 0.2 1019961
10 march, wed
wed1000:00−7nnw5672100 0.1 1020872
03:00−9nnw4674100 0.1 1022849
06:00−9nnw4677100 0.1 1023795
09:00−9nnw4673100 0.1 1025758
12:00−8nnw455789 0.0 1026925
15:00−7nnw455061 0.0 10261020
18:00−8n345276 0.0 1026881
21:00−10ene337076 0.0 1027375
11 march, thu
thu1100:00−12ene346774 0.0 1028298
03:00−13ene336737 0.0 1030240
06:00−13ene23667 0.0 1030218
09:00−12ese23549 0.0 1031321
12:00−9se224022 0.0 1031599
15:00−6sse223818 0.0 1030763
18:00−6sse23411 0.0 1030690
21:00−7sse47461 0.0 1030401